Regional Weather Roundup
Issued by NWS

Home | Current Version | Previous Version | Graphics & Text | Print | Product List | Glossary On
Versions: 1 2 3 4 5 6 7 8 9 10 11 12 13 14 15 16 17 18 19 20 21 22 23 24 25 26 27 28 29 30 31 32 33 34 35 36 37 38 39 40 41 42 43 44 45 46 47 48 49 50
000
ASUS43 KOAX 112010
RWRNE

WEATHER ROUNDUP FOR NEBRASKA
NATIONAL WEATHER SERVICE OMAHA NE
200 PM CST THU FEB 11 2016

NOTES: SATELLITE DATA IS BEING USED TO AUGMENT CLOUD COVER ABOVE
       12000 FEET.
       "FAIR" INDICATES FEW OR NO CLOUDS BELOW 12,000 FEET WITH NO
       SIGNIFICANT WEATHER AND/OR OBSTRUCTIONS TO VISIBILITY.

  * THESE STATIONS DO NOT REPORT WEATHER SUCH AS RAIN...SNOW OR FOG.

NEZ001>004-019>022-054>056-112100-
NEBRASKA PANHANDLE

CITY           SKY/WX    TMP DP  RH WIND       PRES   REMARKS
SCOTTSBLUFF    CLOUDY    58  28  32 NW22      30.09F
ALLIANCE       CLOUDY    50  33  52 NW13      30.06F
CHADRON        MOSUNNY   57  29  34 NW23G36   30.06R
KIMBALL        CLOUDY    53  26  34 N24G32    30.12F
SIDNEY         CLOUDY    53  31  42 NW12      30.11S
$$

NEZ057>060-069>072-079>082-112100-
SOUTHWEST NEBRASKA

CITY           SKY/WX    TMP DP  RH WIND       PRES   REMARKS
NORTH PLATTE   MOSUNNY   43  31  62 SW7       30.04F
IMPERIAL       SUNNY     51  30  44 NW12      30.06F
LEXINGTON      CLOUDY    33  29  85 SW13      30.08F WCI  24
MCCOOK         SUNNY     42  33  70 VRB5      30.06F
OGALLALA       SUNNY     52  33  48 SW8       30.05S
$$

NEZ005>010-023>029-035>040-094-112100-
NORTH CENTRAL NEBRASKA

CITY           SKY/WX    TMP DP  RH WIND       PRES   REMARKS
VALENTINE      SUNNY     51  32  48 NW20G26   29.97F
AINSWORTH      SUNNY     48  32  54 W12       29.98F
BROKEN BOW     CLOUDY    34  30  85 S13       30.05F WCI  25
O`NEILL        CLOUDY    29  28  96 S9        30.06F FOG     WCI  21
ORD            CLOUDY    31  28  89 S14       30.06F WCI  21
THEDFORD       SUNNY     58  32  37 NW10G17   30.00F
$$

NEZ041-046>049-061>064-073>077-083>087-112100-
SOUTH CENTRAL NEBRASKA

CITY           SKY/WX    TMP DP  RH WIND       PRES   REMARKS
GRAND ISLAND   CLOUDY    28  24  85 S13       30.13F FOG     WCI  17
AURORA         CLOUDY    28  24  86 S10       30.13F WCI  18
HASTINGS       CLOUDY    27  23  85 S10       30.13F WCI  17
HEBRON         CLOUDY    26  23  89 S5        30.20F FOG     WCI  20
HOLDREGE       CLOUDY    32  28  87 S9        30.11R WCI  24
KEARNEY *      CLOUDY    30  27  86 S16       30.09F WCI  19
YORK           CLOUDY    27  23  86 S10       30.14F WCI  17
$$

NEZ011>018-030>034-042>045-112100-
NORTHEAST NEBRASKA

CITY           SKY/WX    TMP DP  RH WIND       PRES   REMARKS
NORFOLK        CLOUDY    25  20  81 S13       30.12F WCI  14
ALBION         CLOUDY    27  23  85 S14       30.08F WCI  15
BLAIR          LGT SNOW  22  16  78 S9        30.19F WCI  11
COLUMBUS *     CLOUDY    25  12  58 SE14      30.14F WCI  13
FREMONT        FLURRIES  22  16  78 S9        30.20F WCI  12
TEKAMAH        CLOUDY    19  11  70 SE10      30.22F WCI   7
WAYNE          CLOUDY    20  16  82 S10       30.17F WCI   9
$$

NEZ050>053-065>068-078-088>093-112100-
SOUTHEAST NEBRASKA

CITY           SKY/WX    TMP DP  RH WIND       PRES   REMARKS
LINCOLN        CLOUDY    26  21  81 S9        30.21F WCI  17
OMAHA EPPLEY   LGT SNOW  22  15  75 SE8       30.21F WCI  12
BEATRICE       CLOUDY    27  22  81 SE8       30.20F WCI  18
FALLS CITY     CLOUDY    33  20  58 E8        30.22F WCI  26
NEBRASKA CITY  PTSUNNY   31  19  62 S10       30.20F WCI  22
PLATTSMOUTH    FLURRIES  28  19  69 S9        30.20F WCI  19
$$

NEZ044-045-051>053-067-112100-
OMAHA AREA

CITY           SKY/WX    TMP DP  RH WIND       PRES   REMARKS
OMAHA EPPLEY   LGT SNOW  22  15  75 SE8       30.21F WCI  12
BLAIR          LGT SNOW  22  16  78 S9        30.19F WCI  11
FREMONT        FLURRIES  22  16  78 S9        30.20F WCI  12
MILLARD        LGT SNOW  24  17  74 SE8       30.21F WCI  15
OFFUTT AFB     FLURRIES  25  16  68 E8        30.20F WCI  16
PLATTSMOUTH    FLURRIES  28  19  69 S9        30.20F WCI  19
WAHOO          CLOUDY    25  20  80 S13       30.19F WCI  13
$$



USA.gov is the U.S. government's official web portal to all federal, state and local government web resources and services.